sat.trackr.live / text

‹ back to catalog

STARLINK-2450

NORAD 48113 · 2021-027X

PAYLOAD ACTIVE UNKNOWN

§ Identity

Operator
Country
US
Launch date
2021-04-07
Launch site
AFETR
Launch vehicle
Mass (kg)
RCS (m²)

Purposes: comms

External: N2YO · Heavens-Above · Gunter

§ Orbital elements

Epoch: 2026-09-20T04:33:21.399264Z

Period
94.01 min
Inclination
53.1635°
Eccentricity
0.0001157
Mean motion
15.31699904 rev/d
Perigee alt
469.9 km
Apogee alt
471.5 km
Semi-major
6,848.9 km
B*
1.0626e-5
RAAN
340.1365°
Arg perigee
94.1115°
Mean anomaly
266.0019°
Rev number
30,230

§ Raw data

STARLINK-24501 48113U 21027X   26263.18983101 -.00000035  00000+0  10626-4 0  99962 48113  53.1635 340.1365 0001157  94.1115 266.0019 15.31699904302308

JSON: /api/v1/satellites/48113 · /tle

For live sub-satellite position, see the globe view (requires WebGL).

§ Visibility from observer

Set your observer location to see the next 7 days of passes ≥ 10°. The values pass through the URL so the page stays shareable.

No JS? Fill the form by hand. The geolocation button needs JavaScript.